THOR ABLESTAR DEB, 232

Orbit data source: Space-Track

THOR ABLESTAR DEB, 232 is space debris in LEO originally from a launch on Thu, 29 Jun 1961 UTC launched from the Air Force Eastern Test Range (AFETR). Debris objects in space refer to the collection of defunct objects orbiting the Earth. Examples of debris include non-operational satellites, rocket bodies, and fragments generated from explosions, collisions, or faulty payload assembly.

Loading next visibility...
Identifier
232, 1961-015BQ
Orbit
LEO
Country
Flag of USUS
Related business
Manufacturer
Unknown
Mission
Spacecraft
Bus & Motor
Unknown
Mass
Unknown
Launch date (UTC)
1961-06-29 (65 years ago)
Launch vehicle
Unknown
Launch site
Air Force Eastern Test Range (AFETR)
Object type
Payload
Rocket body
Debris
Shape & HBR
Unknown shape, 0.2 m
Radar Cross Section
Medium (>0.1 m² and <1 m²)

Expand to show TLE details & history
Last TLE update: 17 hours ago

TLE from 17 hours ago
0 THOR ABLESTAR DEB
1 00232U 61015BQ  26202.53098662  .00000170  00000-0  16457-3 0  9995
2 00232  66.8207 128.3065 0050137  79.5991 281.0738 14.00813718311804
Epoch: 2026-07-21T12:44Z
TLE epoch observation values (Epoch: 2026-07-21T12:44:37.243Z)
Latitude
-0.00009°
Longitude
-2.14806°
Altitude
886.242 km
Speed
7.413 km/s
True Right ascension
08h 33m 13s
True Declination
0° 00' 00"
Sunlit
Object was in daylight at epoch
Visualization orbit readout
Latitude
Unknown
Longitude
Unknown
Altitude
Unknown
Speed
Unknown
Apparent Right ascension
Unknown
Apparent Declination
Unknown
Sunlit
N/A
Visualization observer readout
Local Sidereal Time
18:36:20
Azimuth
Unknown
Elevation
Unknown
Doppler factor
Unknown
Orbital elements
Apogee altitude
925.799 km
Perigee altitude
852.925 km
Semi-major axis
7,267.499 km
Eccentricity
0.00501
Inclination
66.8207°
RAAN
128.3065°
Arg. of periapsis
79.5991°
True anomaly
280.5093°
Mean anomaly
281.0738°
Eccentric anomaly
280.79162°
Mean motion
3.50321 °/min
Orbital period
102.76 mins
BSTAR
0.00016457
Loading maneuver chart data...
Computing Atmospheric mass density...

Documentation

Showing up to 5 results
|